Regional Weather Roundup
Issued by NWS Mt. Holly, NJ

Home | Current Version | Previous Version | Text Only | Print | Product List | Glossary On
Versions: 1 2 3 4 5 6 7 8 9 10 11 12 13 14 15 16 17 18 19 20 21 22 23 24 25 26 27 28 29 30 31 32 33 34 35 36 37 38 39 40 41 42 43 44 45 46 47 48 49 50
000
ASUS41 KPHI 171010
RWRPHI

REGIONAL WEATHER ROUNDUP
NATIONAL WEATHER SERVICE MOUNT HOLLY NJ
600 AM EDT WED SEP 17 2014

NOTE:  "FAIR" INDICATES FEW OR NO CLOUDS BELOW 12,000 FEET WITH NO
SIGNIFICANT WEATHER AND/OR OBSTRUCTIONS TO VISIBILITY.

 * = STATION DOES NOT REPORT PRECIPITATION (E.G. RAIN, SNOW, ETC.)
        OR FOG.

NJZ015>026-171100-
SOUTHERN NEW JERSEY

CITY           SKY/WX    TMP DP  RH WIND       PRES   REMARKS
POMONA         CLEAR     50  48  93 NW3       30.03R
RIO GRANDE*    CLEAR     54  46  76 CALM      30.03S
MILLVILLE      CLEAR     50  48  93 CALM      30.03S
WRIGHTSTOWN    CLEAR     51  49  91 NW3       30.02R
MOUNT HOLLY    CLEAR     49  47  93 CALM      30.04R
TRENTON        CLEAR     49  47  93 NW5       30.03S

$$
NJZ001>014-171100-
NORTHERN NEW JERSEY

CITY           SKY/WX    TMP DP  RH WIND       PRES   REMARKS
SUSSEX         FOG       45  43  93 CALM      30.06S VSB 1/4
ANDOVER*         N/A     43  43 100 CALM      30.07R
MORRISTOWN     FOG       43  39  87 CALM      30.05S VSB 1
NEWARK         CLEAR     54  49  83 VRB5      30.04R
TETERBORO      CLEAR     53  47  79 NW6       30.03R
CALDWELL       CLEAR     47  45  93 CALM      30.05S
SOMERVILLE     CLEAR     44  42  93 CALM      30.03S
ALLAIRE*       CLEAR     52  45  76 NW3       30.03S
TOMS RIVER*    CLEAR     48  46  93 CALM      30.04S

$$
PAZ043-044-047-054-055-060>062-066>071-171100-
EASTERN PENNSYLVANIA

CITY           SKY/WX    TMP DP  RH WIND       PRES   REMARKS
PHILADELPHIA   MOCLDY    58  50  75 NW6       30.04S
NORTH PHILA    PTCLDY    53  47  79 NW3       30.06R
BLUE BELL      PTCLDY    48  46  93 CALM      30.04S
DOYLESTOWN     CLEAR     50  32  50 NE5       30.04S
QUAKERTOWN*    CLEAR     45  45 100 CALM      30.06S
POTTSTOWN      CLEAR     49  47  93 CALM      30.06S
LANCASTER      CLEAR     48  46  93 CALM      30.05S
COATESVILLE    CLEAR     54  50  87 N3        30.05S
READING        CLEAR     51  49  92 CALM      30.04S
ALLENTOWN      PTCLDY    45  43  93 NW5       30.06R
MOUNT POCONO   CLEAR     39  37  92 CALM      30.06S
HAZLETON       FOG       41  39  93 CALM      30.10R VSB 3/4
WILKES BARRE   MOCLDY    44  41  89 E3        30.07R

$$
DEZALL-MDZ008-012-015-019-020-171100-
DELAWARE AND EASTERN MARYLAND

CITY           SKY/WX    TMP DP  RH WIND       PRES   REMARKS
WILMINGTON     CLOUDY    56  53  90 N6        30.05R
DOVER          CLEAR     54  52  95 NW2       30.01S
GEORGETOWN     CLEAR     57  52  83 CALM      30.03S
EASTON         CLEAR     56  56 100 CALM      30.07R
PATUXENT       PTCLDY    62  57  83 NE5       30.02R
OCEAN CITY     PTCLDY    60  56  86 N5        30.01R
WALLOPS ISLAND CLOUDY    61  57  87 N6        30.01S
CAMBRIDGE      CLEAR     59  52  77 NE3       30.02R
SALISBURY      PTCLDY    59  54  83 CALM      30.02R

$$
PAZ001-021-NYZ056-072-MDZ011-DCZ001-171100-
OTHER NEARBY LOCATIONS

CITY           SKY/WX    TMP DP  RH WIND       PRES   REMARKS
HARRISBURG     PTCLDY    53  50  89 NW6       30.05S
STATE COLLEGE  CLEAR     45  45 100 CALM      30.07S
WILLIAMSPORT   CLOUDY    48  46  93 NW6       30.08R FOG
BINGHAMTON     MOCLDY    45  43  93 W5        30.05S
NEW YORK CITY  CLEAR     57  49  74 NW3       30.06S
BALTIMORE      PTCLDY    52  50  93 W3        30.04R
WASHINGTON DC  CLEAR     59  51  75 NW6       30.05R

$$


USA.gov is the U.S. government's official web portal to all federal, state and local government web resources and services.